Regional Weather Roundup
Issued by NWS

Home | Current Version | Previous Version | Graphics & Text | Print | Product List | Glossary Off
Versions: 1 2 3 4 5 6 7 8 9 10 11 12 13 14 15 16 17 18 19 20 21 22 23 24 25 26 27 28 29 30 31 32 33 34 35 36 37 38 39 40 41 42 43 44 45 46 47 48 49 50

000
ASUS43 KTOP 200259
RWRKS

WEATHER ROUNDUP FOR KANSAS
NATIONAL WEATHER SERVICE GOODLAND KS
1000 PM CDT SUN OCT 19 2014

NOTE:  "FAIR" INDICATES FEW OR NO CLOUDS BELOW 12,000 FEET WITH NO
SIGNIFICANT WEATHER AND/OR OBSTRUCTIONS TO VISIBILITY.

KSZ001>006-013>018-027>032-041>047-200400-
NORTHWEST KANSAS

CITY           SKY/WX    TMP DP  RH WIND       PRES   REMARKS
GOODLAND       CLEAR     47  40  76 CALM      30.09R
HAYS           CLEAR     55  46  71 E7        30.01S
HILL CITY      CLEAR     52  45  77 NW3       30.02S
RUSSELL        CLEAR     57  51  80 SE10      30.00R
$$

KSZ061>065-074>080-084>089-200400-
SOUTHWEST KANSAS

CITY           SKY/WX    TMP DP  RH WIND       PRES   REMARKS
DODGE CITY     CLEAR     60  48  64 NE3       30.00R
ELKHART          N/A     62  46  55 E2          N/A
GARDEN CITY    CLEAR     54  47  77 N10       30.02R
GREAT BEND     CLEAR     57  50  77 E7        30.01S
LIBERAL        CLEAR     61  46  59 CALM      30.03R
$$

KSZ066>073-081>083-090>101-200400-
SOUTHEAST KANSAS

CITY           SKY/WX    TMP DP  RH WIND       PRES   REMARKS
CHANUTE        CLOUDY    61  54  77 S6        30.04S
COFFEYVILLE    CLOUDY    61  56  83 S3        30.06R
HUTCHINSON     CLEAR     60  53  77 SE6       30.01R
NEWTON         CLEAR     57  48  72 SE7       30.04R
PARSONS        MOCLDY    61  55  81 S3        30.06R
WICHITA INTL   PTCLDY    64  54  69 S9        30.01R
WICHITA JABRA  CLEAR     61  53  75 S7        30.01S
WINFIELD       CLEAR     63  55  75 SE7       30.03S
$$

KSZ007>012-019>026-033>040-048>060-102>105-200400-
NORTHEAST KANSAS

CITY           SKY/WX    TMP DP  RH WIND       PRES   REMARKS
CONCORDIA      CLEAR     58  51  78 SW10      30.01R
EMPORIA        CLEAR     56  52  86 S7        30.02S
LAWRENCE       CLEAR     57  48  72 SW3       30.01R
MANHATTAN      CLEAR     57  50  77 W5        30.00S
OLATHE IND     CLEAR     56  51  84 S7        30.02S
OLATHE EXE     CLEAR     57  51  80 S8        30.00F
SALINA         CLEAR     55  50  83 S5        30.01S
TOPEKA BILLARD CLEAR     61  49  64 SW7       30.00S
TOPEKA FORBES  CLEAR     57  49  74 SW9       30.00S
$$


USA.gov is the U.S. government's official web portal to all federal, state and local government web resources and services.